World of Logs combat log analyzer allows gamers to save, share and analyze their raiding experiences conveniently and thoroughly in the Blizzard MMO World of Warcraft. If you're new here, make sure you check out the tour for a 1 minute introduction. If you have any questions, we're happy to answer them on the forums.

DPS HPS
Odyn
Helya
Guarm
Reports for Gara'jal the Spiritbinder - statistics
# Date Time Damage DPS Guild Realm
1 10 Oct 2014 00:21 106.80M 5020525.4 Warrtorn Logs US-Area 52
2 24 Sep 2014 00:21 106.41M 4996138.5 H2P US-Stormreaver
3 07 Oct 2014 00:22 106.35M 4728940.8 Unity US-Bleeding Hollow
4 31 Aug 2014 00:24 106.32M 4405326.7 Бешеные кролики EU-Галакронд
5 22 Sep 2014 00:25 106.27M 4198017.5 Iniuria EU-Kazzak
6 03 Sep 2014 00:26 106.45M 4078940.8 Wurster EU-Eredar
7 31 Aug 2014 00:27 106.39M 3898731.2 The Source US-Laughing Skull
8 09 Oct 2014 00:27 106.40M 3802232.4 UnKnøwn EU-Sargeras
9 07 Oct 2014 00:28 106.23M 3775390.6 Безумный шляпниК EU-Дракономор
10 04 Sep 2014 00:28 106.17M 3720551.1 Keltoi US-Kil'jaeden
11 04 Sep 2014 00:28 106.17M 3720551.1 Keltoi US-Kil'jaeden
12 24 Aug 2014 00:28 106.50M 3706159.9 CryMore EU-Sunstrider
13 14 Sep 2014 00:29 106.22M 3618205.8 Team Venture US-Chromaggus
14 12 Oct 2014 00:29 106.27M 3615906.0 Хаосы EU-Гордунни
15 14 Sep 2014 00:30 106.49M 3533220.1 Syn Log US-Dalaran
16 28 Aug 2014 00:30 106.13M 3473962.6 Arseniy EU-Дракономор
17 06 Sep 2014 00:31 106.34M 3429747.2 Poagreous US-Mal'Ganis
18 24 Sep 2014 00:32 106.40M 3283903.2 Jaish US-Area 52
19 06 Oct 2014 00:32 106.25M 3243832.1 Seelen des Schicksals EU-Zirkel des Cenarius
20 21 Sep 2014 00:33 106.13M 3182167.5 Legion des Phoenix EU-Antonidas
21 07 Sep 2014 00:33 106.26M 3148367.8 rollexxcutie US-Sargeras
22 30 Sep 2014 00:33 106.76M 3141088.3 Clickers US-Stormrage
23 07 Sep 2014 00:34 106.08M 3115177.8 Тривия EU-Ревущий фьорд
24 12 Sep 2014 00:34 105.99M 3104373.9 aredialog EU-Garona
25 06 Sep 2014 00:34 106.00M 3084785.1 Zoomin US-Zul'jin
26 25 Sep 2014 00:36 106.49M 2909429.5 Vox Radix US-Korgath
27 14 Sep 2014 00:37 106.36M 2821982.8 sinistersoul US-Area 52
28 26 Sep 2013 00:37 106.44M 2820824.2 Oblivion US-Tichondrius
29 12 Sep 2014 00:38 106.18M 2754995.0 Aosb US-Frostmourne
30 23 Sep 2014 00:40 106.09M 2613564.5 Beeroism US-Eonar
31 04 Sep 2014 00:40 106.23M 2591262.3 Redrum US-Illidan
32 31 Aug 2014 00:41 106.12M 2569040.4 Velvet's logs EU-Blackhand
33 17 Sep 2014 00:41 106.28M 2567301.1 Le Lotus Pourpre EU-Suramar
34 17 Sep 2014 00:41 106.28M 2567301.1 Le Lotus Pourpre EU-Suramar
35 17 Sep 2014 00:41 106.28M 2567301.1 Le Lotus Pourpre EU-Suramar
36 17 Sep 2014 00:41 106.28M 2567301.1 Le Lotus Pourpre EU-Suramar
37 30 Aug 2014 00:41 106.12M 2561907.9 Dark´s Logs EU-Antonidas
38 20 Dec 2013 00:41 106.35M 2555848.0 Andrew US-Fizzcrank
39 12 Sep 2014 00:42 106.10M 2498961.4 Ani's Logs EU-Silvermoon
40 09 Sep 2014 00:42 106.56M 2503208.1 Evologs EU-Hyjal
41 05 Oct 2014 00:42 106.06M 2489329.5 Evolution EU-Saurfang
42 12 Sep 2014 00:42 106.10M 2490047.0 Livvians Own EU-Argent Dawn
43 08 Sep 2014 00:43 106.60M 2458094.0 Tanon's logs EU-Twisting Nether
44 09 Sep 2014 00:43 106.23M 2447194.7 Nightstorm EU-Hyjal
45 05 Oct 2014 00:43 106.27M 2426864.3 Planet Express US-Mal'Ganis
46 05 Oct 2014 00:44 106.08M 2406103.9 imortalisse EU-Ysondre
47 18 Sep 2014 00:44 106.10M 2400975.4 A Murloc Stole My Baby US-Caelestrasz
48 08 Sep 2014 00:44 106.11M 2380246.4 VIKING KOV EU-Ragnaros
49 31 Aug 2014 00:44 106.32M 2382700.1 Lorekeepers EU-Darksorrow
50 07 Oct 2014 00:46 106.14M 2276584.7 Brünne und Federkiel EU-Kult der Verdammten
51 11 Oct 2014 00:46 106.58M 2276384.2 Absynth US-Frostmourne
52 03 Oct 2014 00:48 106.16M 2206662.0 Angeli tenebrae EU-Hyjal
53 08 Sep 2014 00:48 106.21M 2206156.2 Аннигиляция EU-Ревущий фьорд
54 26 May 2013 00:48 106.16M 2178399.2 Traumatic US-Deathwing
55 21 Sep 2014 00:49 106.09M 2162006.8 Die drei von der Tankstelle EU-Ysera
56 14 Sep 2014 00:49 106.45M 2153841.5 Apathy US-Hyjal
57 09 Oct 2014 00:49 106.50M 2136437.2 Edelweis logs EU-Ревущий фьорд
58 03 Sep 2014 00:50 106.67M 2123839.6 ИМПЕРИУМ-ВЕСНА EU-Галакронд
59 16 Sep 2014 00:50 107.98M 2140470.2 Ruin US-Korgath
60 10 Sep 2014 00:50 106.04M 2094263.7 Bifröst EU-Dalaran
61 17 Sep 2014 00:50 106.29M 2094077.8 Kenric's Logs US-Mal'Ganis
62 05 Sep 2014 00:51 106.06M 2061623.1 Ani's Logs EU-Silvermoon
63 04 Oct 2014 00:51 106.80M 2062196.8 A Murloc Stole My Baby US-Caelestrasz
64 09 Oct 2014 00:52 106.20M 2031848.4 ManhattenProjekt EU-Blackrock
65 10 Sep 2014 00:52 106.60M 2021257.3 CONSEQUENCE EU-Nordrassil
66 22 Sep 2014 00:53 106.69M 2012565.2 Larmes de Hadès EU-Dalaran
67 04 Oct 2014 00:53 106.13M 1970830.3 Мастерская счастья (2 статик) EU-Борейская тундра
68 10 Oct 2014 00:53 106.13M 1966050.7 Мастерская счастья (2 статик) EU-Борейская тундра
69 21 Sep 2014 00:54 107.34M 1981053.3 Звоночек EU-Гордунни
70 28 Sep 2014 00:55 106.06M 1920000.8 Elspeth's Logs US-Korgath
71 11 Oct 2014 00:56 106.47M 1878869.9 Team Rocket US-Area 52
72 26 Sep 2014 00:58 106.59M 1816937.4 Nightstorm EU-Hyjal
73 12 Oct 2014 00:58 106.23M 1802971.1 Log US-Stormreaver
74 29 Aug 2014 00:59 106.29M 1787478.6 Amaterasu US-Illidan
75 01 May 2013 00:59 106.11M 1780051.3 Tempest Rises US-Bleeding Hollow
76 14 Sep 2014 01:01 106.18M 1740657.7 Jacob6875 US-Area 52
77 08 Oct 2014 01:01 106.03M 1737021.6 Dopler EU-Свежеватель Душ
78 06 Oct 2014 01:03 106.50M 1688213.9 Air US-Sargeras
79 07 May 2013 01:03 106.42M 1683907.2 The War Council US-Silver Hand
80 10 Oct 2014 01:03 106.43M 1676160.4 Prototype US-Spirestone
81 25 Oct 2013 01:03 106.03M 1665847.8 Andrew US-Fizzcrank
82 09 May 2013 01:05 106.40M 1633197.3 Josh's Logs US-Bleeding Hollow
83 20 Sep 2014 01:05 106.48M 1624529.6 Гессор EU-Гордунни
84 04 Oct 2014 01:06 106.24M 1594272.9 slot EU-Ревущий фьорд
85 23 Sep 2014 01:06 106.38M 1592189.0 micheletto US-Stormrage
86 30 Aug 2014 01:06 106.52M 1591672.6 Riven US-Quel'dorei
87 29 Apr 2013 01:07 106.35M 1571874.4 TT EU-Дракономор
88 12 Oct 2014 01:08 106.38M 1558880.5 Daewyn Logs EU-Blackmoore
89 01 Jun 2013 01:08 106.42M 1545438.9 IM A WHALE RUAHUAHUAHUAH EU-Ragnaros
90 02 Oct 2014 01:09 106.36M 1540976.7 Jaydec's Private Logs US-Emerald Dream
91 05 Oct 2014 01:09 106.35M 1526092.3 Ward of Dawn US-Arthas
92 10 Oct 2014 01:10 106.44M 1512449.9 love me harder US-Gorefiend
93 22 Sep 2014 01:10 106.32M 1499676.9 Jadelicht EU-Die Silberne Hand
94 25 Sep 2014 01:11 106.49M 1479518.7 Warrtorn Logs US-Area 52
95 28 Apr 2013 01:12 106.31M 1474056.8 Kamuflasjefylla EU-Ravencrest
96 25 Apr 2013 01:13 106.37M 1441772.0 Pandemonium US-Windrunner
97 20 Sep 2014 01:17 106.02M 1376329.4 gala_qu EU-Борейская тундра
98 30 May 2013 01:17 106.14M 1365986.9 Solemn US-Stormreaver
99 11 Sep 2014 01:18 106.82M 1364171.7 Пуэнтт EU-Азурегос
100 22 Apr 2013 01:18 106.69M 1361039.9 NoM EU-Twisting Nether

Please do not close the page with the ad you want to report.

I've posted a guide on how to report misbehaving ads on the forum. Please follow the instructions and help make the internet a safer place. Thanks for you time.